Find Starlink 32220

NORAD ID: 60370 Int'l Des: 2024-138 Owner: SPXS Country: US Constellation: starlink operational
LEOCIRCULAR

Current View

Loading 3D Globe...

About Starlink 32220

Starlink 32220 (NORAD 60370) is a starlink constellation satellite (v2 mini) launched Aug 4, 2024 by SPXS of US. It operates in LEO, CIRCULAR orbit with a mass of 730.00 kg.

About Starlink 32220

Description loading...

Upcoming Passes

Passes for default location (London). Set your location on the main map for personalized predictions.

Altitude History

Loading altitude history...

Two-Line Element Set

1 60370U 24138R 26175.26991705 .00001097 00000-0 49145-4 0 9998
2 60370 53.1601 174.6809 0000887 77.5300 282.5800 15.30197235106945
Epoch: Jun 24, 2026 • Age: 25 hours

Current Status

Altitude 477.2 km
Velocity 7.63 km/s
Sub-Earth Point 34.48°N, 170.79°E
Launch Date Aug 4, 2024
Age 1.8 years
Type internet

Technical Details

Classification Payload
Mass 730.00 kg
Dry Mass 700.00 kg
Total Mass 730.00 kg
Length 0.30 m
Diameter 4.10 m
Span 29.00 m
Shape Box + pan
Manufacturer SPXS
Bus Type Starlink V2M
Phase Status In Orbit
Owner/State SPXS/US

Most Searched